Home   Weather   Glacier National Park   Past weeks
Flag for USA

Past Weather in Glacier National Park, Montana, USA — Yesterday and Last 2 Weeks

Now
70 °F

Overcast.


Feels Like: 77 °F
Forecast: 66 / 56 °F
Wind: 6 mph from South

Location: Kalispell - Glacier Park International
Current Time: Sep 18, 2020 at 6:45:02 pm
Latest Report: Sep 18, 2020 at 5:55 pm
Visibility: 3 mi
Pressure29.87 "Hg
Humidity: 44%
Dew Point: 47 °F
Location of Glacier National ParkLocation

Past Weather in Glacier National Park — Graph

°F

Glacier National Park Temperature Yesterday

Maximum temperature yesterday: 72 °F (at 2:55 pm)
Minimum temperature yesterday: 36 °F (at 5:55 am)
Average temperature yesterday: 52 °F

High & Low Weather Summary for the Past Weeks

 TemperatureHumidityPressure
High92 °F (Sep 5, 4:55 pm)100% (Sep 15, 3:55 am)30.60 "Hg (Sep 15, 3:55 am)
Low26 °F (Sep 8, 4:55 am)9% (Sep 5, 5:55 pm)29.86 "Hg (Sep 18, 4:55 pm)
Average57 °F57%30.10 "Hg
* Reported Sep 3 4:55 pm — Sep 18 4:55 pm, Glacier National Park. Weather by CustomWeather, © 2020

Note: Actual official high and low records may vary slightly from our data, if they occured in-between our weather recording intervals... More about our weather records

Glacier National Park Weather History for the Previous 24 Hours

Scroll right to see more
 ConditionsComfort  
Time TempWeatherWind HumidityBarometerVisibility
4:55 pm
Fri, Sep 18
72 °FOvercast.3 mph37%29.86 "Hg3 mi
3:55 pm73 °FOvercast.No wind34%29.87 "Hg3 mi
2:55 pm73 °FOvercast.5 mph33%29.88 "Hg3 mi
1:55 pm71 °FMostly cloudy.No wind35%29.90 "Hg3 mi
1:02 pm69 °FOvercast.6 mph38%29.93 "Hg3 mi
11:55 am67 °FScattered clouds.6 mph39%29.94 "Hg3 mi
10:55 am64 °FScattered clouds.8 mph47%29.96 "Hg3 mi
9:55 am59 °FScattered clouds.5 mph62%29.97 "Hg3 mi
8:55 am51 °FScattered clouds.5 mph80%29.97 "Hg2 mi
8:21 am43 °FScattered clouds.3 mph86%29.96 "Hg2 mi
7:55 am40 °FOvercast.No wind93%29.98 "Hg2 mi
7:21 am42 °FOvercast.No wind92%29.96 "Hg2 mi
6:55 am41 °FFog.3 mph93%29.96 "Hg3 mi
5:55 am42 °FFog.No wind89%29.95 "Hg4 mi
4:55 am43 °FFog.7 mph89%29.95 "Hg4 mi
3:55 am40 °FFog.No wind93%29.97 "Hg3 mi
2:55 am43 °FFog.No wind93%29.98 "Hg3 mi
1:55 am41 °FFog.No wind96%30.00 "Hg3 mi
12:55 am45 °FFog.3 mph86%30.01 "Hg3 mi
11:55 pm
Thu, Sep 17
47 °FOvercast.5 mph83%30.00 "Hg3 mi
10:55 pm49 °FOvercast.No wind80%30.01 "Hg3 mi
9:55 pm49 °FOvercast.No wind86%30.03 "Hg3 mi
9:02 pm51 °FOvercast.No wind77%30.02 "Hg3 mi
8:05 pm56 °FOvercast.No wind72%30.02 "Hg3 mi
7:55 pm58 °FOvercast.No wind67%30.03 "Hg2 mi
7:06 pm66 °FOvercast.3 mph50%30.02 "Hg2 mi
6:55 pm67 °FOvercast.3 mph47%30.02 "Hg2 mi
Weather by CustomWeather, © 2020

See weather overview